sat.trackr.live / text

‹ back to catalog

STARLINK-31234

NORAD 59043 · 2024-038W

PAYLOAD ACTIVE UNKNOWN

§ Identity

Operator
Country
US
Launch date
2024-02-25
Launch site
AFETR
Launch vehicle
Mass (kg)
RCS (m²)

Purposes: comms

External: N2YO · Heavens-Above · Gunter

§ Orbital elements

Epoch: 2026-05-24T17:13:39.313632Z

Period
94.27 min
Inclination
43.0030°
Eccentricity
0.0000729
Mean motion
15.27585671 rev/d
Perigee alt
482.5 km
Apogee alt
483.5 km
Semi-major
6,861.2 km
B*
-3.4435e-5
RAAN
314.3813°
Arg perigee
282.8197°
Mean anomaly
77.2573°
Rev number
12,631

§ Raw data

STARLINK-312341 59043U 24038W   26144.71781613 -.00001209  00000+0 -34435-4 0  99952 59043  43.0030 314.3813 0000729 282.8197  77.2573 15.27585671126312

JSON: /api/v1/satellites/59043 · /tle

For live sub-satellite position, see the globe view (requires WebGL).

§ Visibility from observer

Set your observer location to see the next 7 days of passes ≥ 10°. The values pass through the URL so the page stays shareable.

No JS? Fill the form by hand. The geolocation button needs JavaScript.